NOZ994 ENGM-EKBI

Flight info

Callsign NOZ994
Flight time 0h 51m
Altitude 34000
Route VIPPA DCT LOKSA
Aircraft B738/M-SDE2E3GHIJ1LRWXY/LB1

Departure

Time 2026-05-04 15:43
Airport Oslo-Gardermoen International Airport (ENGM)

Arrival

Time 2026-05-04 16:34
Airport Billund Airport (EKBI)
Time Latitude Longitude Altitude Speed Heading
2026-05-04 15:06 60.19631 11.09954 684 ft 0 kts 106°
2026-05-04 15:30 60.19634 11.09934 676 ft 4 kts 106°
2026-05-04 15:31 60.19643 11.09870 678 ft 0 kts 106°
2026-05-04 15:35 60.19653 11.09892 680 ft 3 kts 14°
2026-05-04 15:35 60.19681 11.09855 681 ft 7 kts 319°
2026-05-04 15:35 60.19697 11.09816 682 ft 0 kts 304°
2026-05-04 15:36 60.19705 11.09793 682 ft 3 kts 313°
2026-05-04 15:36 60.19733 11.09786 684 ft 8 kts
2026-05-04 15:38 60.19761 11.09798 684 ft 11 kts 14°
2026-05-04 15:38 60.19861 11.09855 682 ft 19 kts 15°
2026-05-04 15:38 60.19971 11.09900 683 ft 11 kts 343°
2026-05-04 15:38 60.20011 11.09739 683 ft 16 kts 287°
2026-05-04 15:39 60.20046 11.09488 681 ft 21 kts 286°
2026-05-04 15:39 60.20087 11.09205 678 ft 22 kts 286°
2026-05-04 15:39 60.20198 11.08917 680 ft 16 kts 14°
2026-05-04 15:40 60.20324 11.08989 679 ft 22 kts 15°
2026-05-04 15:40 60.20491 11.09085 681 ft 28 kts 17°
2026-05-04 15:40 60.20616 11.09139 680 ft 10 kts 343°
2026-05-04 15:40 60.20656 11.08986 680 ft 16 kts 285°
2026-05-04 15:41 60.20686 11.08790 678 ft 6 kts 287°
2026-05-04 15:41 60.20701 11.08670 678 ft 7 kts 263°
2026-05-04 15:41 60.20656 11.08619 678 ft 8 kts 197°
2026-05-04 15:41 60.20553 11.08560 677 ft 35 kts 196°
2026-05-04 15:42 60.20104 11.08292 675 ft 98 kts 196°
2026-05-04 15:42 60.19279 11.07819 714 ft 143 kts 200°
2026-05-04 15:42 60.18703 11.07497 940 ft 149 kts 199°
2026-05-04 15:43 60.17811 11.06995 1443 ft 158 kts 201°
2026-05-04 15:43 60.16824 11.06017 1918 ft 167 kts 229°
2026-05-04 15:43 60.16113 11.04058 2222 ft 183 kts 246°
2026-05-04 15:44 60.15571 11.01568 2424 ft 205 kts 248°
2026-05-04 15:44 60.14992 10.99117 2727 ft 216 kts 241°
2026-05-04 15:44 60.13790 10.97086 2960 ft 242 kts 211°
2026-05-04 15:44 60.12291 10.95493 3626 ft 245 kts 213°
2026-05-04 15:45 60.10773 10.93886 4373 ft 249 kts 212°
2026-05-04 15:45 60.09213 10.92281 5045 ft 253 kts 212°
2026-05-04 15:45 60.07665 10.90694 6013 ft 248 kts 213°
2026-05-04 15:45 60.06141 10.89117 6699 ft 252 kts 213°
2026-05-04 15:46 60.04569 10.87478 7394 ft 256 kts 213°
2026-05-04 15:46 60.02994 10.85827 8166 ft 257 kts 213°
2026-05-04 15:46 60.01397 10.84154 8814 ft 262 kts 213°
2026-05-04 15:46 59.99756 10.82431 9525 ft 268 kts 213°
2026-05-04 15:47 59.98090 10.80683 10138 ft 278 kts 213°
2026-05-04 15:47 59.96300 10.78790 10322 ft 302 kts 213°
2026-05-04 15:47 59.94393 10.76780 10741 ft 316 kts 213°
2026-05-04 15:47 59.92436 10.74729 11430 ft 320 kts 213°
2026-05-04 15:48 59.90479 10.72686 12203 ft 322 kts 213°
2026-05-04 15:48 59.88486 10.70605 12982 ft 326 kts 214°
2026-05-04 15:48 59.84441 10.66389 14566 ft 328 kts 216°
2026-05-04 15:49 59.82428 10.64296 15466 ft 326 kts 216°
2026-05-04 15:49 59.80421 10.62213 16349 ft 325 kts 217°
2026-05-04 15:49 59.78421 10.60135 17213 ft 325 kts 218°
2026-05-04 15:49 59.76438 10.58074 18017 ft 327 kts 218°
2026-05-04 15:50 59.74418 10.55980 18612 ft 329 kts 218°
2026-05-04 15:50 59.72363 10.53845 19080 ft 337 kts 218°
2026-05-04 15:50 59.70272 10.51682 19621 ft 342 kts 218°
2026-05-04 15:50 59.68155 10.49504 20251 ft 344 kts 218°
2026-05-04 15:51 59.66019 10.47308 20813 ft 348 kts 218°
2026-05-04 15:51 59.63861 10.45086 21389 ft 351 kts 218°
2026-05-04 15:51 59.61686 10.42840 21979 ft 355 kts 218°
2026-05-04 15:51 59.59433 10.40718 22516 ft 366 kts 212°
2026-05-04 15:52 59.56987 10.39229 23036 ft 382 kts 204°
2026-05-04 15:52 59.54333 10.38273 23409 ft 391 kts 201°
2026-05-04 15:52 59.51647 10.37388 23928 ft 392 kts 201°
2026-05-04 15:52 59.48952 10.36516 24418 ft 393 kts 201°
2026-05-04 15:53 59.46242 10.35631 24734 ft 398 kts 201°
2026-05-04 15:53 59.43489 10.34719 25049 ft 403 kts 200°
2026-05-04 15:53 59.40713 10.33797 25483 ft 406 kts 200°
2026-05-04 15:53 59.37921 10.32869 25935 ft 408 kts 200°
2026-05-04 15:54 59.35120 10.31923 26318 ft 409 kts 202°
2026-05-04 15:54 59.32319 10.30795 26635 ft 415 kts 199°
2026-05-04 15:54 59.29479 10.30034 27078 ft 419 kts 198°
2026-05-04 15:54 59.26601 10.29192 27483 ft 418 kts 200°
2026-05-04 15:55 59.23727 10.28217 27841 ft 421 kts 200°
2026-05-04 15:55 59.20829 10.27216 28189 ft 424 kts 200°
2026-05-04 15:55 59.17908 10.26226 28447 ft 428 kts 199°
2026-05-04 15:55 59.14930 10.25447 28809 ft 435 kts 194°
2026-05-04 15:56 59.11909 10.25016 29357 ft 435 kts 193°
2026-05-04 15:56 59.08895 10.24685 29914 ft 433 kts 192°
2026-05-04 15:56 59.05932 10.24360 30348 ft 432 kts 193°
2026-05-04 15:56 59.02942 10.24003 30761 ft 430 kts 193°
2026-05-04 15:57 58.99982 10.23623 31279 ft 425 kts 193°
2026-05-04 15:57 58.97046 10.23230 31791 ft 421 kts 193°
2026-05-04 15:57 58.94126 10.22825 32207 ft 420 kts 194°
2026-05-04 15:57 58.91231 10.22260 32505 ft 417 kts 195°
2026-05-04 15:58 58.88359 10.21562 32849 ft 416 kts 196°
2026-05-04 15:58 58.85492 10.20818 33259 ft 414 kts 196°
2026-05-04 15:58 58.82684 10.20086 33687 ft 412 kts 196°
2026-05-04 15:58 58.79827 10.19346 33755 ft 417 kts 196°
2026-05-04 15:59 58.74068 10.17898 33774 ft 416 kts 195°
2026-05-04 15:59 58.68378 10.16523 33783 ft 410 kts 195°
2026-05-04 16:00 58.62710 10.15157 33761 ft 411 kts 195°
2026-05-04 16:00 58.57071 10.13802 33790 ft 411 kts 195°
2026-05-04 16:01 58.51387 10.12440 33801 ft 412 kts 195°
2026-05-04 16:01 58.45690 10.11081 33799 ft 413 kts 195°
2026-05-04 16:02 58.39973 10.09723 33815 ft 414 kts 195°
2026-05-04 16:03 58.31424 10.07700 33813 ft 415 kts 195°
2026-05-04 16:03 58.25699 10.06352 33818 ft 415 kts 195°
2026-05-04 16:04 58.19976 10.05008 33819 ft 414 kts 195°
2026-05-04 16:04 58.11407 10.03004 33829 ft 413 kts 195°
2026-05-04 16:05 58.05744 10.01685 33828 ft 412 kts 195°
2026-05-04 16:06 57.97370 9.99741 33856 ft 412 kts 195°
2026-05-04 16:07 57.86938 9.97331 33860 ft 413 kts 195°
2026-05-04 16:07 57.77663 9.95221 33021 ft 393 kts 194°
2026-05-04 16:08 57.74965 9.94608 32674 ft 389 kts 194°
2026-05-04 16:08 57.67018 9.92791 31570 ft 379 kts 194°
2026-05-04 16:09 57.61821 9.91607 30865 ft 374 kts 194°
2026-05-04 16:09 57.56725 9.90450 30166 ft 369 kts 194°
2026-05-04 16:10 57.51659 9.89304 29383 ft 364 kts 194°
2026-05-04 16:11 57.44186 9.87617 28305 ft 365 kts 194°
2026-05-04 16:11 57.41634 9.87033 27942 ft 372 kts 194°
2026-05-04 16:12 57.33920 9.85301 26790 ft 372 kts 194°
2026-05-04 16:12 57.26283 9.83606 25647 ft 366 kts 193°
2026-05-04 16:13 57.22107 9.82680 25063 ft 362 kts 193°
2026-05-04 16:13 57.17117 9.81572 24341 ft 360 kts 193°
2026-05-04 16:14 57.11360 9.80297 23487 ft 358 kts 193°
2026-05-04 16:14 57.06435 9.79210 22674 ft 355 kts 193°
2026-05-04 16:15 56.99219 9.77629 21552 ft 345 kts 193°
2026-05-04 16:16 56.94504 9.76599 20876 ft 338 kts 193°
2026-05-04 16:16 56.87576 9.75085 19863 ft 331 kts 193°
2026-05-04 16:17 56.83799 9.74262 19302 ft 327 kts 193°
2026-05-04 16:18 56.76351 9.72644 18194 ft 321 kts 194°
2026-05-04 16:18 56.74856 9.72320 17936 ft 320 kts 194°
2026-05-04 16:19 56.68323 9.70909 16895 ft 312 kts 193°
2026-05-04 16:19 56.64040 9.69987 16250 ft 308 kts 193°
2026-05-04 16:20 56.57715 9.68627 15301 ft 303 kts 193°
2026-05-04 16:20 56.53544 9.67732 14678 ft 301 kts 193°
2026-05-04 16:21 56.47367 9.66411 13742 ft 298 kts 193°
2026-05-04 16:22 56.43259 9.65535 13048 ft 296 kts 193°
2026-05-04 16:22 56.37205 9.64250 12111 ft 291 kts 193°
2026-05-04 16:23 56.31218 9.62981 11192 ft 287 kts 192°
2026-05-04 16:24 56.23352 9.61323 10107 ft 278 kts 192°
2026-05-04 16:25 56.19548 9.60522 9652 ft 281 kts 192°
2026-05-04 16:26 56.11740 9.58882 8448 ft 281 kts 192°
2026-05-04 16:26 56.05983 9.57682 7577 ft 276 kts 192°
2026-05-04 16:27 56.02195 9.56895 7007 ft 273 kts 191°
2026-05-04 16:28 55.96569 9.55726 6125 ft 270 kts 191°
2026-05-04 16:28 55.91040 9.54380 5209 ft 261 kts 207°
2026-05-04 16:29 55.85285 9.47037 3986 ft 255 kts 219°
2026-05-04 16:30 55.80954 9.41583 3247 ft 257 kts 219°
2026-05-04 16:31 55.78005 9.37913 2578 ft 260 kts 218°
2026-05-04 16:31 55.74599 9.31693 1794 ft 211 kts 264°
2026-05-04 16:32 55.74340 9.25114 1076 ft 149 kts 268°
2026-05-04 16:33 55.74238 9.21736 706 ft 130 kts 268°
2026-05-04 16:33 55.74135 9.18495 316 ft 138 kts 267°
2026-05-04 16:34 55.74052 9.15702 215 ft 67 kts 266°
2026-05-04 16:34 55.74032 9.15165 222 ft 34 kts 267°
2026-05-04 16:35 55.74060 9.14500 215 ft 8 kts 352°
2026-05-04 16:35 55.74155 9.14488 219 ft 8 kts 357°
2026-05-04 16:36 55.74221 9.14482 217 ft 11 kts 357°
2026-05-04 16:36 55.74372 9.14468 215 ft 10 kts 357°
2026-05-04 16:37 55.74444 9.14620 221 ft 9 kts 86°
2026-05-04 16:37 55.74447 9.14733 217 ft 9 kts 86°
2026-05-04 16:37 55.74454 9.14809 224 ft 1 kts 52°
2026-05-04 16:38 55.74509 9.14818 217 ft 5 kts 357°
2026-05-04 16:39 55.74533 9.14815 215 ft 0 kts 357°